Regional Weather Roundup
Issued by NWS

Home | Current Version | Previous Version | Text Only | Print | Product List | Glossary Off
Versions: 1 2 3 4 5 6 7 8 9 10 11 12 13 14 15 16 17 18 19 20 21 22 23 24 25 26 27 28 29 30 31 32 33 34 35 36 37 38 39 40 41 42 43 44 45 46 47 48 49 50

518
ASUS45 KBOU 260207
RWRCO

WEATHER ROUNDUP FOR COLORADO
NATIONAL WEATHER SERVICE DENVER/BOULDER CO
800 PM MDT SAT MAR 25 2017

NOTE: "FAIR" INDICATES FEW OR NO CLOUDS BELOW 12000 FEET WITH NO
SIGNIFICANT WEATHER AND/OR OBSTRUCTIONS TO VISIBILITY.

COZ001>005-013-030-031-260300-
...NORTHWEST COLORADO...

CITY           SKY/WX    TMP DP  RH WIND       PRES   REMARKS
CRAIG          CLOUDY    48  31  51 SW17G29   29.90R
HAYDEN         FAIR      48  27  43 W9        29.89R
MEEKER         CLOUDY    50  28  42 MISG      29.90R
MOUNT WERNER   NOT AVBL
STEAMBOAT SPGS CLOUDY    47  29  50 W9        29.89R
WALDEN         NOT AVBL
$$

COZ006>008-011-260300-
...WEST CENTRAL VALLEYS...

CITY           SKY/WX    TMP DP  RH WIND       PRES   REMARKS
GRAND JUNCTION CLOUDY    51  41  68 NE8       29.87S
MONTROSE       MOCLDY    51  28  41 N15       29.90S
EAGLE          MOCLDY    52  25  35 SW21      29.90R
RIFLE          CLOUDY    52  32  46 CALM      29.91R
DELTA          MOCLDY    54  32  43 NE10      29.88F
NUCLA          TSTM      46  34  61 W14G24    29.98R
$$

COZ017>023-064>068-260300-
...SOUTHWEST COLORADO...

CITY           SKY/WX    TMP DP  RH WIND       PRES   REMARKS
DURANGO        LGT RAIN  51  25  36 NW14      29.87R
CORTEZ         CLOUDY    48  34  58 W26G33    29.93R
PAGOSA SPRINGS MOCLDY    49  20  32 NW8       29.90F
TELLURIDE      NOT AVBL
WOLF CREEK PAS FAIR      28  14  54 SW7       30.09S WCI  21
$$

COZ009-010-012-014-032>034-037-058>063-260300-
...CENTRAL COLORADO...

CITY           SKY/WX    TMP DP  RH WIND       PRES   REMARKS
ASPEN          MOCLDY    46  26  45 N17G23    29.90R
BUENA VISTA    CLOUDY    48  25  40 S16G24    29.91R
COPPER MTN     LGT SNOW  30  27  86 NW5       30.05F VSB 3/4 WCI  25
BERTHOUD PASS  FLURRIES  23  12  63 MISG      30.06S
COTTONWOOD PAS MOCLDY    41  28  60 W9        29.97R
GUNNISON       FAIR      42  29  59 S6        29.94R
KREMMLING      CLOUDY    54  23  30 NW12      29.89R
LEADVILLE      CLOUDY    33  26  75 NE7       29.97R WCI  27
MONARCH PASS   CLOUDY    30  21  69 W32G40    30.14F WCI  15
SALIDA         CLOUDY    49  30  47 W13G24    29.98R
SUNLIGHT       LGT SNOW  28  27  93 SW17G36   30.04S VSB 3/4 WCI  16
WILKERSON PASS MOCLDY    34  19  55 SW6       30.03F WCI  29
$$

COZ069>075-260300-
...SAN LUIS VALLEY/SANGRE DE CRISTO MOUNTAINS...

CITY           SKY/WX    TMP DP  RH WIND       PRES   REMARKS
ALAMOSA        FAIR      46  24  42 S6        29.88S
LA VETA PASS   NOT AVBL
SAGUACHE       MOCLDY    50  27  40 NW10      29.90S
$$

COZ035-036-038>040-260300-
...NORTHERN COLORADO FRONT RANGE...

CITY           SKY/WX    TMP DP  RH WIND       PRES   REMARKS
DENVER INTL AP CLOUDY    49  34  56 SE10      29.83F
DMNS CITY PARK   N/A     53  28  38 E7G16     29.82F
AURORA         MOCLDY    48  34  58 SE13      29.83F
FRONT RANGE AP MOCLDY    50  37  62 SE9       29.85F
ERIE MUNI ARPT FAIR      53  28  37 CALM      29.82S
BOULDER MUN AP FAIR      54  21  28 N3        29.83S
CENTENNIAL     CLOUDY    50  32  50 SE12      29.82F
BROOMFIELD     MOCLDY    54  25  32 NE6       29.83F
FORT COLLINS   FAIR      54  27  35 E6        29.84F
LONGMONT       FAIR      55  24  30 N3        29.84F
$$

COZ041-046-047-076>085-087-088-260300-
...PIKES PEAK/PALMER DIVIDE AND SOUTHERN FOOTHILLS...

CITY           SKY/WX    TMP DP  RH WIND       PRES   REMARKS
COLO. SPRINGS  MOCLDY    49  32  52 SE9       29.87F
A. F. ACADEMY  FAIR      48  32  53 SE9       29.86F
SCHRIEVER AFB  MOCLDY    45  32  60 E7        29.88F
ELLICOTT         N/A    N/A N/A N/A SE7       29.87F
FALCON         FAIR      43  32  65 S13       29.90F
FORT CARSON    FAIR      49  30  48 S6        29.86F
LIMON          FAIR      43  35  73 SE6       29.87S
MONUMENT HILL  FAIR      39  32  75 S10       29.88S
TRINIDAD       FAIR      53  32  44 S5        29.83F
$$

COZ042>045-048>051-090-091-260300-
...NORTHEAST COLORADO...

CITY           SKY/WX    TMP DP  RH WIND       PRES   REMARKS
GREELEY ARPT   FAIR      52  32  46 SE7       29.84S
AKRON          FAIR      49  29  46 SE10      29.86S
BURLINGTON     FAIR      48  35  60 SE7       29.88S
WRAY           NOT AVBL
STERLING       FAIR      52  34  50 SE8       29.84S
HOLYOKE        FAIR      46  34  61 SE8       29.87S
FORT MORGAN    FAIR      50  32  49 SE8       29.85S
$$

COZ086-089-092>099-260300-
...SOUTHEAST COLORADO...

CITY           SKY/WX    TMP DP  RH WIND       PRES   REMARKS
PUEBLO         FAIR      53  31  42 NE9       29.81F
LA JUNTA       FAIR      55  31  39 E13       29.80F
LAMAR          FAIR      54  19  25 E8        29.82F
SPRINGFIELD      N/A     53  25  33 SE13      29.84F
$$




USA.gov is the U.S. government's official web portal to all federal, state and local government web resources and services.